Location: Newark
(45.5000°N, 11.4167°E)
Time: 15:47:21
(UTC+00:00)

Transit 2A Rocket - Pass Details

Date: 28 August 2019
Orbit: 594 x 910 km, 66.7° (Epoch: 17 October)

Event Time Altitude Azimuth Distance (km) Brightness Sun altitude
Rises 17:04:05 0° 210° (SSW) 3,436 8.7 8.9°
Reaches altitude 10° 17:06:38 10° 211° (SSW) 2,466 8.0 8.4°
Maximum altitude 17:12:21 90° 129° (SE) 805 5.3 7.4°
Drops below altitude 10° 17:17:36 10° 33° (NNE) 2,273 7.2 6.5°
Sets 17:19:52 0° 33° (NNE) 3,150 7.9 6.1°
